Location: Dumpton Point
(51.3500°N, 1.4433°E)
Time: 22:39:42
(UTC+00:00)

Vanguard 1 - Pass Details

Date: 24 September 2022
Orbit: 650 x 3831 km, 34.2° (Epoch: 03 December)

Event Time Altitude Azimuth Distance (km) Brightness Sun altitude
Rises 17:45:02 0° 238° (WSW) 4,738 14.7 -0.3°
Reaches altitude 10° 17:50:02 10° 220° (SW) 3,157 13.3 -1.1°
Maximum altitude 17:54:09 16° 185° (S) 2,301 12.0 -1.8°
Drops below altitude 10° 17:57:26 10° 148° (SSE) 2,399 11.8 -2.3°
Sets 18:00:27 0° 124° (SE) 3,107 12.1 -2.7°
